Regional Weather Roundup
Issued by NWS

Home | Current Version | Previous Version | Text Only | Print | Product List | Glossary Off
Versions: 1 2 3 4 5 6 7 8 9 10 11 12 13 14 15 16 17 18 19 20 21 22 23 24 25 26 27 28 29 30 31 32 33 34 35 36 37 38 39 40 41 42 43 44 45 46 47 48 49 50

000
ASUS43 KMKX 271011
RWRWI

WISCONSIN REGIONAL WEATHER ROUNDUP
NATIONAL WEATHER SERVICE MILWAUKEE/SULLIVAN WI
400 AM CST THU NOV 27 2014

NOTE: "FAIR" INDICATES FEW OR NO CLOUDS BELOW 12,000 FEET WITH NO
SIGNIFICANT WEATHER AND/OR OBSTRUCTIONS TO VISIBILITY.

WIZ001-002-006>008-014>016-023>028-271100-
NORTHWEST WISCONSIN

CITY           SKY/WX    TMP DP  RH WIND       PRES   REMARKS
SUPERIOR ARPT  CLEAR     -3  -8  78 W5        30.49R WCI -13
ASHLAND        CLEAR      0  -3  87 W6        30.41S WCI -12
HAYWARD        CLEAR     -2  -6  83 W5        30.38S WCI -12
SIREN          CLEAR     -1  -6  79 NW3       30.45S
CUMBERLAND     CLEAR      0  -6  78 N9        30.39S WCI -16
RICE LAKE      CLEAR      1  -4  77 NW6       30.41S WCI -10
CHETEK         CLEAR      2  -3  79 NW5       30.39S WCI  -7
LADYSMITH      CLEAR      4   0  83 NW10      30.37R WCI -11
EAU CLAIRE     PTCLDY     6  -2  69 NW13      30.39R WCI -10
MENOMONIE      CLEAR      6  -3  67 NW10      30.41R WCI  -9
NEW RICHMOND   CLEAR      2  -4  76 N9        30.44R WCI -13
OSCEOLA        CLEAR      2  -4  75 NW6       30.49R WCI  -9
$$

WIZ003>005-009-010-017-018-271100-
NORTH CENTRAL WISCONSIN

CITY           SKY/WX    TMP DP  RH WIND       PRES   REMARKS
MANITOWISH WTR LGT SNOW  10   7  89 CALM      30.25S
ARBOR VITAE    MOCLDY     7   4  87 N5        30.25R WCI  -2
WOODRUFF       MOCLDY     7   4  87 N5        30.25R WCI  -2
RHINELANDER    CLOUDY    10   6  84 N6        30.24R WCI   0
EAGLE RIVER    PTCLDY     8   3  83 N8        30.23S WCI  -5
LAND O LAKES   LGT SNOW  10   6  87 N5        30.25R WCI   1
PHILLIPS       LGT SNOW   7   2  82 NW5       30.29R WCI  -2
TOMAHAWK       LGT SNOW  11   8  85 NW7       30.27R WCI   1
MEDFORD        FLURRIES  11   6  81 NW14      30.27S WCI  -5
MERRILL        FLURRIES  13   9  83 NW7       30.26R WCI   2
$$

WIZ029-030-035-036-043>047-271100-
CENTRAL WISCONSIN

CITY           SKY/WX    TMP DP  RH WIND       PRES   REMARKS
WAUSAU         FLURRIES  14  10  84 NW9       30.25R WCI   2
MOSINEE        FLURRIES  14  12  92 NW8       30.26S WCI   3
MARSHFIELD     CLOUDY    15   9  76 NW16      30.27S WCI  -1
STEVENS POINT  FLURRIES  14  11  87 NW8       30.26S WCI   3
WAUPACA        MOCLDY    22  17  82 W7        30.26R WCI  14
WAUTOMA        CLOUDY    21  16  81 NW10      30.28R WCI  10
WISC RAPIDS    CLOUDY    17  10  74 NW8       30.29S WCI   7
CAMP DOUGLAS   FLURRIES  18  18  99 NW10      30.30S WCI   7
$$

WIZ011>013-019>022-031-037>040-048>050-271100-
NORTHEAST WISCONSIN

CITY           SKY/WX    TMP DP  RH WIND       PRES   REMARKS
ANTIGO         PTCLDY    11   8  85 N12       30.22R WCI  -3
SHAWANO        CLOUDY    24  17  74 N7        30.25R WCI  16
OCONTO         CLOUDY    20  17  86 N9        30.25R WCI  10
STURGEON BAY   CLOUDY    23  18  80 N17       30.21R WCI   9
GREEN BAY      FLURRIES  24  18  77 NW7       30.24R WCI  16
MANITOWOC      MIX PCPN  24  22  91 NW13      30.22R WCI  12
APPLETON       FLURRIES  23  19  86 NW10      30.23S WCI  12
CLINTONVILLE   CLOUDY    23  18  80 NW9       30.24S WCI  13
OSHKOSH        CLOUDY    22  18  85 MISG      30.23S
$$

WIZ032>034-041-042-053>061-271100-
SOUTHWEST WISCONSIN

CITY           SKY/WX    TMP DP  RH WIND       PRES   REMARKS
LA CROSSE      CLOUDY    20  13  74 N12       30.36R WCI   8
SPARTA         CLOUDY    18  13  81 NW12      30.34R WCI   6
VIROQUA        MOCLDY    18  14  84 NW16      30.28R WCI   3
BOSCOBEL       CLOUDY    25  17  72 NW6       30.33R WCI  18
PRAIRIE DU CHI CLOUDY    23  16  75 NW9       30.34R WCI  13
PLATTEVILLE    CLOUDY    24  21  89 CALM      30.30R
$$

WIZ056-057-062-063-064-067-068-271100-
SOUTH CENTRAL WISCONSIN

CITY           SKY/WX    TMP DP  RH WIND       PRES   REMARKS
REEDSBURG      LGT SNOW  22  18  86 NW10      30.28R WCI  11
BARABOO/DELLS  LGT SNOW  22  18  87 NW5       30.27R WCI  15
LONE ROCK      CLOUDY    27  18  69 NW9       30.30R WCI  18
MINERAL POINT  LGT SNOW  25  21  86 NW7       30.26S WCI  17
MADISON        CLOUDY    23  18  81 NW7       30.26S WCI  15
MIDDLETON      CLOUDY    24  21  86 NW5       30.27R WCI  19
WATERTOWN      CLOUDY    21  19  93 NW8       30.24S WCI  11
MONROE         CLOUDY    23  21  93 NW7       30.25S WCI  15
JANESVILLE     CLOUDY    21  21 100 W5        30.25S WCI  15
$$

WIZ051-052-058>065-066-070>072-271100-
SOUTHEAST WISCONSIN

CITY           SKY/WX    TMP DP  RH WIND       PRES   REMARKS
MILWAUKEE      LGT SNOW  24  19  81 NW9       30.22S WCI  14
WAUKESHA       CLOUDY    21  19  93 NW8       30.23S FOG     WCI  12
MILWAUKEE/TIMM CLOUDY    23  19  86 NW10      30.23S WCI  12
RACINE         LGT SNOW  23  19  85 NW9       30.24R FOG     WCI  13
BURLINGTON     CLOUDY    20  18  91 NW8       30.22S WCI  11
KENOSHA        LGT SNOW  22  18  85 NW10      30.22S FOG     WCI  11
FOND DU LAC    CLOUDY    22  18  85 NW10      30.23S WCI  11
SHEBOYGAN      CLOUDY    23  19  85 NW10      30.21S WCI  12
WEST BEND      CLOUDY    23  19  86 NW7       30.22S WCI  15
JUNEAU         CLOUDY    21  18  88 NW7       30.24S WCI  12
$$

LSZ147-162-271100-
LAKE SUPERIOR

STATION/POSITION TIME  TEMP    WIND        PRES    WAVE
                       AIR SEA DIR/SP/G            HT/PER
                 (UTC) (F)     (DEG/KT/KT) (MB)    (FT/S)
DEVILS ISLAND    1000    8      10/ 14/ 17 1031.5S
PORT WING        0940    8     330/  8/ 12 1030.5R
SAXON HARBOR     0900   15     330/ 12/ 16 1028.4S
$$

LMZ867-665-643>646-271100-
LAKE MICHIGAN

STATION/POSITION TIME  TEMP    WIND        PRES    WAVE
                       AIR SEA DIR/SP/G            HT/PER
                 (UTC) (F)     (DEG/KT/KT) (MB)    (FT/S)
CHAMBERS ISLAND  0900   25     330/ 18/ 24 1023.4R
N MID LAKE BUOY  0950   27 42  340/ 23/ 27 1022.5R   4/ 5
NORTHPORT PIER   0905   27     350/ 22     1022.7R
SISTER BAY       0858          360/ 25/ 27   N/A
KEWAUNEE LAKESHO 0900   25     330/  9/ 13 1021.9R
SHEBOYGAN LAKESH 1000   24 36  310/ 11/ 16 1024.4R
PORT WASHINGTON  0940   24     310/  5/  9 1024.0S
MILWAUKEE LAKESH 0900   24     310/  9/ 13   N/A
S MID LAKE BUOY  0950   32 42  320/ 17/ 21 1022.8R   4/ 5
KENOSHA   LAKESH 1000   22     310/  9/ 13 1023.4S
$$

TC  - TEMPERATURE IN CELSIUS
VSB - VISIBILITY IN STATUTE MILES
WCI - WIND CHILL INDEX
HX  - HEAT INDEX



USA.gov is the U.S. government's official web portal to all federal, state and local government web resources and services.